• In Hungary
  • List of Countries
  • For 7 days
  • Water Temperature
  • Satellite Maps
  • Weather Map
  • News
  • Weather Widgets
  • user-avatar
    Login

    Hourly Weather Modliborz

    Today, 22 October, Sunday

    Time Temperature Precipitation Wind Pressure Humidity
    00:00 +10°C° 0 mm 1 mps 750 mmHg 91%
    01:00 +10°C° 0 mm 1 mps 750 mmHg 92%
    02:00 +10°C° 0 mm 1 mps 749 mmHg 93%
    03:00 +9°C° 0 mm 2 mps 749 mmHg 93%
    04:00 +9°C° 0 mm 2 mps 749 mmHg 94%
    05:00 +9°C° 0 mm 2 mps 749 mmHg 94%
    06:00 +9°C° 0 mm 3 mps 749 mmHg 94%
    07:00 +9°C° 0 mm 2 mps 749 mmHg 94%
    08:00 +10°C° 0.1 mm 3 mps 749 mmHg 90%
    09:00 +10°C° 0.1 mm 3 mps 749 mmHg 85%
    10:00 +11°C° 0.1 mm 3 mps 749 mmHg 81%
    11:00 +11°C° 0.3 mm 3 mps 748 mmHg 82%
    12:00 +11°C° 0.3 mm 3 mps 748 mmHg 82%
    13:00 +11°C° 0.3 mm 3 mps 748 mmHg 83%
    14:00 +11°C° 0.5 mm 3 mps 748 mmHg 85%
    15:00 +10°C° 0.5 mm 3 mps 748 mmHg 87%
    16:00 +10°C° 0.5 mm 2 mps 747 mmHg 90%
    17:00 +10°C° 0.2 mm 2 mps 747 mmHg 91%
    18:00 +9°C° 0.2 mm 2 mps 747 mmHg 92%
    19:00 +9°C° 0.2 mm 2 mps 747 mmHg 93%
    20:00 +9°C° 0.1 mm 2 mps 747 mmHg 93%
    21:00 +9°C° 0.1 mm 2 mps 747 mmHg 93%
    22:00 +9°C° 0.1 mm 2 mps 747 mmHg 93%
    23:00 +8°C° 0 mm 2 mps 747 mmHg 92%

    Tomorrow, 23 October, Monday

    Time Temperature Precipitation Wind Pressure Humidity
    00:00 +8°C° 0 mm 2 mps 747 mmHg 91%
    01:00 +8°C° 0 mm 2 mps 747 mmHg 90%
    02:00 +8°C° 0 mm 2 mps 747 mmHg 91%
    03:00 +7°C° 0 mm 2 mps 747 mmHg 91%
    04:00 +7°C° 0 mm 2 mps 747 mmHg 91%
    05:00 +7°C° 0 mm 2 mps 747 mmHg 91%
    06:00 +7°C° 0 mm 2 mps 747 mmHg 91%
    07:00 +7°C° 0 mm 2 mps 747 mmHg 92%
    08:00 +8°C° 0 mm 2 mps 747 mmHg 87%
    09:00 +9°C° 0 mm 2 mps 748 mmHg 83%
    10:00 +10°C° 0 mm 2 mps 748 mmHg 79%
    11:00 +10°C° 0 mm 2 mps 748 mmHg 76%
    12:00 +12°C° 0 mm 2 mps 748 mmHg 74%
    13:00 +13°C° 0 mm 2 mps 748 mmHg 71%
    14:00 +12°C° 0 mm 2 mps 748 mmHg 74%
    15:00 +12°C° 0 mm 2 mps 748 mmHg 77%
    16:00 +10°C° 0 mm 2 mps 749 mmHg 79%
    17:00 +10°C° 0 mm 2 mps 749 mmHg 82%
    18:00 +9°C° 0 mm 2 mps 749 mmHg 85%
    19:00 +9°C° 0 mm 2 mps 750 mmHg 88%
    20:00 +8°C° 0 mm 2 mps 750 mmHg 90%
    21:00 +8°C° 0 mm 2 mps 751 mmHg 91%
    22:00 +7°C° 0 mm 2 mps 751 mmHg 93%
    23:00 +7°C° 0 mm 2 mps 752 mmHg 93%

    Day after tomorrow, 24 October, Tuesday

    Time Temperature Precipitation Wind Pressure Humidity
    00:00 +7°C° 0 mm 2 mps 752 mmHg 93%
    01:00 +7°C° 0 mm 2 mps 752 mmHg 94%
    02:00 +7°C° 0 mm 1 mps 753 mmHg 94%
    03:00 +7°C° 0 mm 1 mps 753 mmHg 95%
    04:00 +7°C° 0 mm 1 mps 753 mmHg 95%
    05:00 +7°C° 0 mm 1 mps 754 mmHg 95%
    06:00 +6°C° 0 mm 1 mps 754 mmHg 94%
    07:00 +6°C° 0 mm 1 mps 755 mmHg 94%
    08:00 +6°C° 0 mm 2 mps 755 mmHg 88%
    09:00 +7°C° 0 mm 2 mps 755 mmHg 83%
    10:00 +8°C° 0 mm 2 mps 756 mmHg 78%
    11:00 +9°C° 0 mm 2 mps 756 mmHg 75%
    12:00 +10°C° 0 mm 2 mps 756 mmHg 72%
    13:00 +12°C° 0 mm 2 mps 756 mmHg 69%
    14:00 +10°C° 0 mm 2 mps 756 mmHg 71%
    15:00 +11°C° 0 mm 1 mps 756 mmHg 73%
    16:00 +11°C° 0 mm 1 mps 756 mmHg 75%
    17:00 +10°C° 0 mm 1 mps 756 mmHg 76%
    18:00 +9°C° 0 mm 2 mps 756 mmHg 77%
    19:00 +9°C° 0 mm 2 mps 756 mmHg 78%
    20:00 +9°C° 0 mm 2 mps 756 mmHg 78%
    21:00 +9°C° 0 mm 3 mps 757 mmHg 78%
    22:00 +8°C° 0 mm 3 mps 757 mmHg 78%
    23:00 +8°C° 0 mm 3 mps 756 mmHg 80%

    25 October, Wednesday

    Time Temperature Precipitation Wind Pressure Humidity
    00:00 +8°C° 0 mm 3 mps 756 mmHg 81%
    01:00 +8°C° 0 mm 3 mps 756 mmHg 82%
    02:00 +8°C° 0 mm 3 mps 756 mmHg 82%
    03:00 +7°C° 0 mm 4 mps 755 mmHg 82%
    04:00 +7°C° 0 mm 4 mps 755 mmHg 82%
    05:00 +7°C° 0.2 mm 4 mps 755 mmHg 83%
    06:00 +7°C° 0.2 mm 5 mps 754 mmHg 83%
    07:00 +7°C° 0.2 mm 5 mps 754 mmHg 83%
    08:00 +7°C° 1.9 mm 6 mps 754 mmHg 84%
    09:00 +7°C° 1.9 mm 6 mps 753 mmHg 85%
    10:00 +6°C° 1.9 mm 7 mps 753 mmHg 86%
    11:00 +6°C° 2 mm 7 mps 752 mmHg 87%
    12:00 +7°C° 2 mm 6 mps 752 mmHg 88%
    13:00 +7°C° 2 mm 6 mps 751 mmHg 90%
    14:00 +8°C° 0.6 mm 6 mps 751 mmHg 91%
    15:00 +9°C° 0.6 mm 5 mps 751 mmHg 92%
    16:00 +10°C° 0.6 mm 5 mps 750 mmHg 94%
    17:00 +12°C° 0.3 mm 5 mps 751 mmHg 94%
    18:00 +12°C° 0.3 mm 5 mps 751 mmHg 94%
    19:00 +13°C° 0.3 mm 5 mps 751 mmHg 94%
    20:00 +13°C° 0.4 mm 5 mps 751 mmHg 94%
    21:00 +13°C° 0.4 mm 5 mps 751 mmHg 94%
    22:00 +13°C° 0.4 mm 5 mps 751 mmHg 94%
    23:00 +13°C° 1.1 mm 5 mps 751 mmHg 93%

    26 October, Thursday

    Time Temperature Precipitation Wind Pressure Humidity
    00:00 +13°C° 1.1 mm 6 mps 751 mmHg 92%
    01:00 +13°C° 1.1 mm 6 mps 751 mmHg 92%
    02:00 +13°C° 0.4 mm 6 mps 751 mmHg 92%
    03:00 +12°C° 0.4 mm 5 mps 751 mmHg 91%
    04:00 +12°C° 0.4 mm 4 mps 751 mmHg 91%
    05:00 +11°C° 0.1 mm 4 mps 752 mmHg 92%
    06:00 +11°C° 0.1 mm 3 mps 752 mmHg 93%
    07:00 +10°C° 0.1 mm 3 mps 752 mmHg 94%
    08:00 +11°C° 0 mm 3 mps 753 mmHg 88%
    09:00 +12°C° 0 mm 3 mps 753 mmHg 83%
    10:00 +13°C° 0 mm 4 mps 753 mmHg 78%
    11:00 +13°C° 0 mm 4 mps 753 mmHg 78%
    12:00 +14°C° 0 mm 4 mps 753 mmHg 77%
    13:00 +14°C° 0 mm 4 mps 752 mmHg 76%
    14:00 +14°C° 0.4 mm 4 mps 752 mmHg 80%
    15:00 +13°C° 0.4 mm 3 mps 752 mmHg 84%
    16:00 +13°C° 0.4 mm 3 mps 751 mmHg 88%
    17:00 +13°C° 0.3 mm 3 mps 751 mmHg 90%
    18:00 +12°C° 0.3 mm 3 mps 751 mmHg 92%
    19:00 +12°C° 0.3 mm 3 mps 751 mmHg 93%
    20:00 +12°C° 0 mm 3 mps 751 mmHg 94%
    21:00 +12°C° 0 mm 3 mps 750 mmHg 94%
    22:00 +11°C° 0 mm 3 mps 750 mmHg 95%
    23:00 +11°C° 0 mm 3 mps 750 mmHg 94%

    27 October, Friday

    Time Temperature Precipitation Wind Pressure Humidity
    00:00 +12°C° 0 mm 4 mps 750 mmHg 93%
    01:00 +12°C° 0 mm 4 mps 750 mmHg 92%
    02:00 +11°C° 0.1 mm 4 mps 749 mmHg 92%
    03:00 +11°C° 0.1 mm 4 mps 749 mmHg 92%
    04:00 +11°C° 0.1 mm 3 mps 749 mmHg 93%
    05:00 +11°C° 0.1 mm 3 mps 748 mmHg 93%
    06:00 +11°C° 0.1 mm 4 mps 747 mmHg 94%
    07:00 +11°C° 0.1 mm 4 mps 747 mmHg 95%
    08:00 +11°C° 0.5 mm 4 mps 746 mmHg 92%
    09:00 +11°C° 0.5 mm 4 mps 746 mmHg 90%
    10:00 +11°C° 0.5 mm 4 mps 745 mmHg 88%
    11:00 +11°C° 0.7 mm 4 mps 745 mmHg 87%
    12:00 +11°C° 0.7 mm 4 mps 744 mmHg 85%
    13:00 +11°C° 0.7 mm 4 mps 744 mmHg 83%
    14:00 +10°C° 0.7 mm 4 mps 743 mmHg 83%
    15:00 +8°C° 0.7 mm 4 mps 743 mmHg 83%
    16:00 +8°C° 0.7 mm 4 mps 742 mmHg 83%
    17:00 +8°C° 0.3 mm 5 mps 742 mmHg 84%
    18:00 +8°C° 0.3 mm 6 mps 743 mmHg 85%
    19:00 +8°C° 0.3 mm 6 mps 743 mmHg 86%
    20:00 +7°C° 0.1 mm 6 mps 743 mmHg 86%
    21:00 +7°C° 0.1 mm 6 mps 742 mmHg 86%
    22:00 +7°C° 0.1 mm 5 mps 742 mmHg 86%
    23:00 +5°C° 0 mm 6 mps 742 mmHg 87%
    Show more